RASCOM-QAF 1R

Last updated on Thu Nov 21 2024 00:02:41 GMT+0000 (Coordinated Universal Time)

1 36831U 10037B 24325.29584323 .00000020 00000+0 00000+0 0 9994 2 36831 0.0089 99.5779 0006735 143.6038 286.0581 1.00272246 52542
UTC large
Height (km)
Speed (km/s)
/
Latitude / Longitude
Inclination (degrees)
Orbital Period (minutes)
Azimuth
Elevation
Range (km)
Doppler Factor

Next 0 passes for location: London (51.5072 / 0.1276)

Sorry there are no passes over London.